Home > Weather > Oss > Past weeks

Flag for Netherlands Past Weather in Oss, Netherlands — Yesterday and Last 2 Weeks

Now
63 °F

Scattered clouds.


Feels Like: 63 °F
Forecast: 50 / 66 °F
Wind: 5 mph from West

Location: Volkel

Current Time: Jun 27, 2016 at 8:31:07 PM

Latest Report: Jun 27, 2016 at 7:55 PM


Visibility: N/A

Pressure: 30.07 "Hg

Humidity: 88%

Dew Point: 59 °F

Location of OssLocation

Past Weather in Oss — Graph

°F

Oss Temperature Yesterday

Maximum temperature yesterday: 66 °F (at 12:25 PM)
Minimum temperature yesterday: 48 °F (at 5:25 AM)
Average temperature yesterday: 58 °F

High & Low Weather Summary for the Past Weeks

 TemperatureHumidityPressure
High88 °F (Jun 23, 4:55 PM)100% (Jun 12, 8:55 PM)30.24 "Hg (Jun 12, 8:55 PM)
Low46 °F (Jun 16, 4:55 AM)49% (Jun 16, 2:55 PM)29.45 "Hg (Jun 14, 3:25 PM)
Average62 °F86%29.89 "Hg
* Reported Jun 12 7:03 PM — Jun 27 7:25 PM, Oss, Weather by CustomWeather, © 2016

Note: Actual official high and low records may vary slightly from our data, if they occured in-between our weather recording intervals... More about our weather records

Advertising

Oss Weather History for the Previous 24 Hours

Scroll right to see more
 ConditionsComfort  
Time TempWeatherWind HumidityBarometerVisibility
7:25 PM
Mon, Jun 27
61 °FPartly sunny.5 mph94%30.04 "HgN/A
6:55 PM61 °FBroken clouds.5 mph94%30.04 "HgN/A
6:25 PM59 °FMostly cloudy.5 mph94%30.04 "HgN/A
5:59 PM59 °FMore clouds than sun.7 mph94%30.04 "HgN/A
5:25 PM61 °FDrizzle. Mostly cloudy.8 mph94%30.04 "Hg2 mi
4:55 PM63 °FDrizzle. Broken clouds.8 mph100%30.01 "Hg2 mi
4:25 PM63 °FDrizzle. Broken clouds.12 mph94%30.01 "Hg4 mi
4:04 PM63 °FDrizzle. Broken clouds.12 mph94%30.01 "Hg2 mi
3:55 PM63 °FFog.10 mph94%30.01 "Hg4 mi
3:25 PM63 °FPartly sunny.13 mph94%30.01 "HgN/A
2:55 PM63 °FFog.12 mph94%30.04 "Hg4 mi
2:25 PM61 °FLight rain. Broken clouds.12 mph94%30.01 "Hg3 mi
1:59 PM61 °FLight rain. Broken clouds.13 mph94%30.04 "Hg3 mi
1:55 PM61 °FLight rain. Mostly cloudy.12 mph94%30.04 "Hg2 mi
1:25 PM61 °FMostly cloudy.9 mph88%30.04 "HgN/A
12:55 PM61 °FFog.12 mph88%30.04 "Hg6 mi
12:25 PM61 °FFog.12 mph88%30.04 "Hg3 mi
11:55 AM61 °FMostly cloudy.12 mph88%30.04 "HgN/A
11:25 AM61 °FMore clouds than sun.13 mph83%30.04 "HgN/A
10:55 AM59 °FFog.14 mph88%30.04 "Hg4 mi
10:25 AM61 °FOvercast.13 mph77%30.04 "HgN/A
9:55 AM61 °FOvercast.14 mph77%30.04 "HgN/A
9:25 AM59 °FOvercast.12 mph82%30.04 "HgN/A
8:55 AM59 °FOvercast.12 mph82%30.04 "HgN/A
8:25 AM59 °FBroken clouds.12 mph82%30.04 "HgN/A
8:01 AM57 °FBroken clouds.12 mph82%30.04 "HgN/A
7:25 AM57 °FOvercast.10 mph88%30.04 "HgN/A
6:55 AM57 °FMostly cloudy.10 mph88%30.04 "HgN/A
6:25 AM55 °FOvercast.12 mph94%30.04 "HgN/A
5:55 AM55 °FOvercast.13 mph94%30.04 "HgN/A
5:25 AM55 °FOvercast.12 mph88%30.04 "HgN/A
4:55 AM55 °FMostly cloudy.10 mph88%30.04 "HgN/A
4:25 AM55 °FPassing clouds.9 mph88%30.04 "HgN/A
3:55 AM55 °FPassing clouds.8 mph94%30.04 "HgN/A
3:25 AM55 °FPassing clouds.7 mph94%30.04 "HgN/A
2:55 AM55 °FOvercast.8 mph94%30.04 "HgN/A
2:25 AM55 °FOvercast.8 mph94%30.04 "HgN/A
1:55 AM55 °FOvercast.8 mph94%30.04 "HgN/A
1:25 AM54 °FMostly cloudy.5 mph100%30.07 "HgN/A
12:55 AM55 °FCool.5 mph94%30.04 "HgN/A
12:25 AM55 °FPassing clouds.6 mph94%30.07 "HgN/A
11:55 PM
Sun, Jun 26
54 °FPassing clouds.5 mph94%30.07 "HgN/A
11:25 PM55 °FPassing clouds.5 mph94%30.07 "HgN/A
10:55 PM54 °FPartly sunny.5 mph100%30.07 "HgN/A
10:25 PM55 °FScattered clouds.6 mph94%30.04 "HgN/A
9:55 PM57 °FCool.5 mph88%30.04 "HgN/A
9:25 PM59 °FPassing clouds.7 mph88%30.04 "HgN/A
8:55 PM61 °FOvercast.9 mph77%30.04 "HgN/A
8:25 PM61 °FBroken clouds.8 mph83%30.04 "HgN/A
Weather by CustomWeather, © 2016

See weather overviewHow to use our weather pages